Stations météo

Publicité
Le Havre/Octeville, France (7046): Température de l'air & dewpoint: 20.03.2017 09:00:00 - 26.03.2017 09:00:00 (CEST)Le Havre/Octeville, France (7046): Vitesse du vent & gusts: 20.03.2017 09:00:00 - 26.03.2017 09:00:00 (CEST)Le Havre/Octeville, France (7046): Direction du vent: 20.03.2017 09:00:00 - 26.03.2017 09:00:00 (CEST)Le Havre/Octeville, France (7046): reduced air pressure: 20.03.2017 09:00:00 - 26.03.2017 09:00:00 (CEST)Le Havre/Octeville, France (7046): visibility: 20.03.2017 09:00:00 - 26.03.2017 09:00:00 (CEST)Le Havre/Octeville, France (7046): Quantités de précipitations: 20.03.2017 09:00:00 - 26.03.2017 09:00:00 (CEST)
Date & Time tt [°C] td [°C] ff [km/h] ff [knt] fx [km/h] fx [knt] dd ppp [hPa] vv [km] rr [mm]
26.03.2017 09:00:00 7,1 0,3 14 7 21 11 ENE 1020,2 41 0,0
26.03.2017 08:00:00 5,5 0,1 15 8 22 12 ENE 1020,0 29 0,0
26.03.2017 07:00:00 5,9 -0,2 12 6 24 13 E 1019,2 30 0,0
26.03.2017 06:00:00 6,4 0,1 17 9 29 15 E 1019,3 33 0,0
26.03.2017 05:00:00 6,9 0,3 22 12 36 20 ENE 1019,4 31 0,0
26.03.2017 04:00:00 7,1 1,2 23 12 37 20 ENE 1019,5 24 0,0
26.03.2017 03:00:00 7,0 2,3 20 11 31 17 ENE 1019,7 20 0,0
26.03.2017 02:00:00 7,4 2,7 15 8 24 13 ENE 1020,0 20 0,0
26.03.2017 01:00:00 7,5 3,5 16 9 31 17 ENE 1020,3 18 0,0
26.03.2017 00:00:00 7,8 4,0 14 8 37 20 ENE 1020,5 18 0,0
25.03.2017 23:00:00 8,2 4,4 26 14 48 26 NE 1020,4 19 0,0
25.03.2017 22:00:00 8,5 4,7 27 15 43 23 NE 1020,2 18 0,0
25.03.2017 21:00:00 8,8 5,2 29 15 50 27 NE 1019,9 17 0,0
25.03.2017 20:00:00 9,4 5,6 34 19 50 27 NNE 1019,6 15 0,0
25.03.2017 19:00:00 11,3 5,8 34 19 59 32 NNE 1019,2 17 0,0
25.03.2017 18:00:00 12,1 6,6 35 19 52 28 NNE 1019,9 17 0,0
25.03.2017 17:00:00 13,9 6,0 29 15 55 30 NNE 1020,4 14 0,0
25.03.2017 16:00:00 13,3 5,7 38 21 62 34 NE 1021,3 13 0,0
25.03.2017 15:00:00 12,9 6,0 38 21 57 31 NE 1021,7 12 0,0
25.03.2017 14:00:00 12,3 5,7 36 20 57 31 NNE 1022,6 11 0,0
25.03.2017 13:00:00 11,6 4,8 32 17 54 29 NE 1023,7 11 0,0
25.03.2017 12:00:00 10,9 4,8 33 18 49 26 NE 1023,9 17 0,0
25.03.2017 11:00:00 9,8 4,6 32 18 49 26 NE 1024,4 9 0,0
25.03.2017 10:00:00 8,0 4,9 27 15 41 22 NE 1025,0 8 0,0
25.03.2017 09:00:00 6,7 4,4 22 12 34 19 NE 1025,7 8 0,0
25.03.2017 08:00:00 6,1 3,6 17 9 26 14 ENE 1025,9 6 0,0
25.03.2017 07:00:00 6,4 4,1 14 8 23 12 ENE 1026,0 5 0,0
25.03.2017 06:00:00 6,5 4,7 16 9 28 15 NE 1025,9 4,6 0,0
25.03.2017 05:00:00 6,9 4,9 19 10 32 18 NE 1026,0 4,8 0,0
25.03.2017 04:00:00 7,4 5,4 19 10 31 17 NE 1026,5 4,5 0,0
25.03.2017 03:00:00 7,4 6,0 18 10 29 16 NE 1026,8 4,2 0,0
25.03.2017 02:00:00 7,7 6,2 18 10 29 16 NE 1026,9 4,2 0,0
25.03.2017 01:00:00 7,7 6,3 16 9 24 13 NE 1027,1 4,2 0,0
25.03.2017 00:00:00 7,7 6,5 12 7 22 12 NE 1027,1 4,2 0,0
24.03.2017 23:00:00 7,9 7,0 16 9 30 16 NE 1027,3 3,6 0,0
24.03.2017 22:00:00 8,2 7,1 19 10 35 19 NE 1027,3 3,9 0,0
24.03.2017 21:00:00 8,6 7,5 22 12 35 19 NE 1026,7 3,5 0,0
24.03.2017 20:00:00 8,9 7,7 20 11 34 18 NNE 1026,1 3,4 0,0
24.03.2017 19:00:00 10,9 8,1 23 12 41 22 NNE 1025,3 4,6 0,0
24.03.2017 18:00:00 12,3 9,1 22 12 36 20 NE 1025,0 4,8 0,0
24.03.2017 17:00:00 12,8 9,6 24 13 35 19 NE 1024,6 4,8 0,0
24.03.2017 16:00:00 12,4 9,8 19 10 29 16 ENE 1024,7 5 0,0
24.03.2017 15:00:00 12,6 9,8 14 7 28 15 ENE 1024,9 9 0,0
24.03.2017 14:00:00 11,3 9,0 18 10 24 13 NE 1024,7 13 0,0
24.03.2017 13:00:00 10,7 9,8 14 8 23 12 NNE 1024,6 10 1,2
24.03.2017 12:00:00 8,2 7,8 10 6 13 7 NNE 1024,9 5 1,2
24.03.2017 11:00:00 7,9 7,5 5 3 10 5 NE 1024,4 19 0,0
24.03.2017 10:00:00 7,8 7,8 4 2 14 8 ENE 1023,2 9 0,0
24.03.2017 09:00:00 6,1 6,1 7 4 20 11 NNE 1022,4 2,7 0,0
24.03.2017 08:00:00 5,0 4,9 8 5 14 7 NE 1021,9 0,3 0,2
24.03.2017 07:00:00 5,6 5,6 10 5 13 7 NNE 1021,3 4,1 0,0
24.03.2017 06:00:00 5,7 5,4 6 4 8 4 NNE 1020,8 3,2 0,0
24.03.2017 05:00:00 6,9 6,6 6 3 10 5 ENE 1020,1 5 0,0
24.03.2017 04:00:00 7,1 6,5 6 3 11 6 E 1019,7 12 0,2
24.03.2017 03:00:00 7,3 6,7 7 4 20 11 E 1019,1 11 1,2
24.03.2017 02:00:00 7,4 6,5 14 7 27 14 ESE 1018,8 6 3,4
24.03.2017 01:00:00 8,1 7,5 16 9 33 18 ESE 1017,7 3,4 3,5
24.03.2017 00:00:00 8,3 7,5 16 9 26 14 ESE 1016,7 5 1,6
23.03.2017 23:00:00 8,2 7,8 12 7 18 10 E 1015,3 2,1 1,6
23.03.2017 22:00:00 7,9 7,5 5 3 22 12 SE 1014,2 3,3 0,2
23.03.2017 21:00:00 7,6 7,3 4 2 24 13 S 1012,4 3,7 0,0
23.03.2017 20:00:00 7,9 7,6 9 5 17 9 S 1011,4 2,3 1,0
23.03.2017 19:00:00 8,7 7,9 3 2 16 9 NNW 1010,9 6 0,4
23.03.2017 18:00:00 9,6 8,2 10 5 16 8 NE 1010,7 7 0,2
23.03.2017 17:00:00 9,8 7,2 10 5 21 11 ENE 1010,6 13 0,0
23.03.2017 16:00:00 8,8 7,1 8 5 12 6 ENE 1010,1 11 0,0
23.03.2017 15:00:00 8,0 6,3 8 4 21 11 E 1010,1 11 0,0
23.03.2017 14:00:00 7,2 5,8 14 8 25 13 E 1010,1 11 0,0
23.03.2017 13:00:00 6,7 5,8 14 7 22 12 ENE 1009,7 11 0,6
23.03.2017 12:00:00 6,5 5,8 11 6 16 9 ENE 1009,8 10 0,4
23.03.2017 11:00:00 6,2 5,8 12 6 23 13 NE 1010,0 6 0,6
23.03.2017 10:00:00 6,1 5,8 9 5 18 10 NNE 1009,1 7 0,4
23.03.2017 09:00:00 6,0 5,9 14 8 23 13 ENE 1009,5 5 1,0
23.03.2017 08:00:00 5,9 5,8 13 7 19 10 NE 1009,3 3,9 0,4
23.03.2017 07:00:00 5,6 5,5 3 1 7 4 NNE 1008,9 4,3 0,0
23.03.2017 06:00:00 5,3 5,0 5 3 10 5 NNE 1008,6 4,3 0,0
23.03.2017 05:00:00 4,9 4,5 4 2 7 4 NNE 1008,9 12 0,0
23.03.2017 04:00:00 5,5 4,9 4 2 10 5 ENE 1008,9 9 0,0
23.03.2017 03:00:00 6,3 5,4 7 4 11 6 ESE 1009,2 25 0,0
23.03.2017 02:00:00 6,4 5,5 6 3 13 7 ESE 1009,1 22 0,0
23.03.2017 01:00:00 6,6 6,0 8 4 13 7 ESE 1009,2 19 0,0
23.03.2017 00:00:00 6,0 5,4 8 4 13 7 NNE 1009,0 9 0,4
22.03.2017 23:00:00 5,7 4,8 6 3 8 4 N 1009,1 8 1,8
22.03.2017 22:00:00 5,8 5,1 3 2 6 3 NW 1008,8 22 0,2
22.03.2017 21:00:00 6,3 5,1 5 3 15 8 ESE 1008,5 6 0,4
22.03.2017 20:00:00 6,8 5,9 6 4 9 5 E 1008,1 20 0,0
22.03.2017 19:00:00 7,5 5,6 3 2 17 9 E 1007,5 52 1,0
22.03.2017 18:00:00 5,9 5,0 11 6 34 18 W 1007,7 2,7 3,0
22.03.2017 17:00:00 8,6 6,0 13 7 23 12 S 1007,2 42 0,0
22.03.2017 16:00:00 7,1 5,6 11 6 32 18 SSE 1007,5 9 0,8
22.03.2017 15:00:00 8,3 4,7 17 9 37 20 SSE 1007,4 38 0,0
22.03.2017 14:00:00 7,8 4,4 21 12 42 23 SSE 1007,4 51 0,0
22.03.2017 13:00:00 7,4 4,2 23 13 49 27 SSE 1007,5 43 0,0
22.03.2017 12:00:00 7,2 4,0 29 15 55 30 SSE 1007,1 50 0,0
22.03.2017 11:00:00 6,2 4,7 16 9 40 22 ESE 1006,3 32 0,2
22.03.2017 10:00:00 5,2 2,9 20 11 43 23 ESE 1006,6 23 0,0
22.03.2017 09:00:00 5,3 2,3 25 13 46 25 SE 1006,3 37 0,0
22.03.2017 08:00:00 4,9 2,1 22 12 42 23 SE 1006,4 43 0,0
22.03.2017 07:00:00 5,0 1,7 22 12 40 21 SE 1007,0 35 0,0
22.03.2017 06:00:00 4,7 1,5 16 9 27 15 SE 1007,7 38 0,0
22.03.2017 05:00:00 4,8 1,1 17 9 32 17 SE 1008,8 42 0,0
22.03.2017 04:00:00 5,5 1,0 17 9 29 16 SE 1009,5 20 0,0
22.03.2017 03:00:00 6,1 1,0 14 8 35 19 SSE 1010,4 47 0,0
22.03.2017 02:00:00 6,6 0,1 15 8 32 17 SSE 1011,2 20 0,0
22.03.2017 01:00:00 7,2 -0,8 17 9 27 15 SE 1011,8 56 0,0
22.03.2017 00:00:00 6,4 0,7 11 6 16 8 ESE 1012,7 40 0,0
21.03.2017 23:00:00 6,7 1,6 8 4 14 8 ESE 1012,9 20 0,0
21.03.2017 22:00:00 7,6 1,6 9 5 15 8 SE 1013,0 20 0,0
21.03.2017 21:00:00 7,3 1,4 11 6 17 9 SSW 1013,7 20 0,0
21.03.2017 20:00:00 7,2 2,1 12 7 27 14 SW 1013,7 56 0,0
21.03.2017 19:00:00 8,4 2,6 16 9 27 14 WSW 1013,6 56 0,0
21.03.2017 18:00:00 8,8 2,1 10 5 16 9 WSW 1013,8 55 0,0
21.03.2017 17:00:00 9,0 1,4 11 6 21 12 W 1013,9 60 0,0
21.03.2017 16:00:00 9,6 4,0 14 7 23 13 WSW 1014,2 37 0,0
21.03.2017 15:00:00 9,2 3,4 18 10 31 17 W 1014,7 19 0,0
21.03.2017 14:00:00 9,6 4,2 20 11 33 18 WSW 1014,6 20 0,0
21.03.2017 13:00:00 8,6 2,8 17 9 29 16 W 1014,4 20 0,0
21.03.2017 12:00:00 8,3 2,7 21 11 36 19 W 1014,3 20 0,0
21.03.2017 11:00:00 8,0 3,1 19 10 33 18 WNW 1013,7 20 0,0
21.03.2017 10:00:00 7,4 3,4 20 11 32 17 WNW 1013,0 34 0,0
21.03.2017 09:00:00 6,4 3,0 24 13 54 29 WNW 1012,5 47 0,0
21.03.2017 08:00:00 6,6 3,9 16 9 56 30 W 1012,0 49 1,0
21.03.2017 07:00:00 7,7 4,5 21 11 37 20 W 1011,4 42 0,0
21.03.2017 06:00:00 7,8 6,1 19 11 45 24 W 1010,8 47 0,4
21.03.2017 05:00:00 8,5 7,7 25 14 37 20 SW 1010,3 20 0,0
21.03.2017 04:00:00 8,4 7,8 25 14 35 19 SW 1010,3 29 0,0
21.03.2017 03:00:00 8,4 7,8 26 14 41 22 SW 1010,1 20 0,0
21.03.2017 02:00:00 8,4 8,0 29 15 42 23 SW 1009,9 20 0,0
21.03.2017 01:00:00 8,5 7,7 26 14 40 22 SW 1009,9 32 0,0
21.03.2017 00:00:00 8,6 8,2 20 11 39 21 SW 1009,6 19 0,0
20.03.2017 23:00:00 9,7 9,6 25 14 46 25 WSW 1009,4 15 0,0
20.03.2017 22:00:00 10,0 9,8 26 14 38 21 SSW 1009,0 2,7 0,6
20.03.2017 21:00:00 10,0 9,5 27 14 51 28 SW 1008,6 8 0,4
20.03.2017 20:00:00 11,4 8,8 27 15 45 25 SSW 1008,2 60 0,0
20.03.2017 19:00:00 11,3 8,5 29 16 48 26 SSW 1008,4 20 0,0
20.03.2017 18:00:00 11,7 8,0 24 13 44 24 SSW 1008,5 50 0,0
20.03.2017 17:00:00 11,6 7,7 29 15 50 27 SSW 1009,0 36 0,0
20.03.2017 16:00:00 11,0 7,3 28 15 48 26 SSW 1009,3 41 0,0
20.03.2017 15:00:00 11,1 6,4 29 16 45 25 SSW 1009,7 43 0,0
20.03.2017 14:00:00 11,3 6,2 25 13 49 26 SSW 1010,1 43 0,0
20.03.2017 13:00:00 11,9 6,6 30 16 51 28 SSW 1010,3 57 0,0
20.03.2017 12:00:00 11,4 7,3 27 15 49 26 S 1010,5 60 0,0
20.03.2017 11:00:00 10,4 6,9 31 17 48 26 SSW 1010,8 56 0,0
20.03.2017 10:00:00 9,6 6,1 25 13 42 23 S 1011,0 54 0,0
20.03.2017 09:00:00 - - - - - - - - - -

tt = Température de l'air
td = dewpoint
ff = Vitesse du vent
fx = gusts
dd = Direction du vent
ppp = reduced air pressure
vv = visibility
rr = Quantités de précipitations

stations d'obs. à proximité